Tracking 17938 objects as of 24-February-2017
HD Live streaming from Space Station
objects crossing your sky now

METEOSAT 5 AKM

Track METEOSAT 5 AKM now!


NORAD ID: 21904
Int'l Code: 1991-015E
Perigee: 35,177.0 km
Apogee: 36,481.6 km
Inclination: 14.5 °
Period: 1,437.9 minutes
Semi major axis: 42200 km
RCS: 0.9471 m2 (medium)
Launch date: March 2, 1991
Source: European Space Agency (ESA)
Launch site: FRENCH GUIANA (FRGUI)

Note: This is a ROCKET BODY
Your satellite tracking list
Your tracking list is empty





NASA's NSSDC Master Catalog

Two Line Element Set (TLE):
1 21904U 91015E   17053.13180694  .00000049  00000-0  00000+0 0  9992
2 21904  14.4672   6.4236 0154569 146.3210  71.3859  1.00145005 82414
Source of the keplerian elements: AFSPC